This is the latest recevied weather packets stored in our database for station/object OK0BPL-5. If no packets are shown the sender has not sent any weather packets the latest 1 day(s).
| Time | Temp. | Humidity | Pressure | Rain* | Wind** | Luminosity | Snow |
|---|---|---|---|---|---|---|---|
| 1788474397 | 17.22° C | 79% | 1015.9 hPa | 0 mm | 3.13 m/s, 222° | 0 W/m² | - |
| 1788474397 | 17.22° C | 79% | 1015.9 hPa | 0 mm | 3.13 m/s, 222° | 0 W/m² | - |
| 1788473497 | 16.67° C | 81% | 1015.8 hPa | 0 mm | 2.24 m/s, 222° | 0 W/m² | - |
| 1788473497 | 16.67° C | 81% | 1015.8 hPa | 0 mm | 2.24 m/s, 222° | 0 W/m² | - |
| 1788472597 | 16.67° C | 83% | 1015.8 hPa | 0 mm | 2.68 m/s, 222° | 0 W/m² | - |
| 1788472597 | 16.67° C | 83% | 1015.8 hPa | 0 mm | 2.68 m/s, 222° | 0 W/m² | - |
| 1788471699 | 16.11° C | - | - | - | 2.68 m/s, 222° | - | - |
| 1788471698 | 16.11° C | 85% | 1016.1 hPa | 0 mm | 2.68 m/s, 222° | 0 W/m² | - |
| 1788471697 | 16.11° C | 85% | 1016.1 hPa | 0 mm | 2.68 m/s, 222° | 0 W/m² | - |
| 1788471697 | 16.11° C | 85% | 1016.1 hPa | 0 mm | 2.68 m/s, 222° | 0 W/m² | - |
| 1788470797 | 16.11° C | 86% | 1016.1 hPa | 0 mm | 2.24 m/s, 222° | 0 W/m² | - |
| 1788469897 | 16.11° C | 87% | 1016.1 hPa | 0 mm | 1.79 m/s, 222° | 0 W/m² | - |
| 1788469897 | 16.11° C | 87% | 1016.1 hPa | 0 mm | 1.79 m/s, 222° | 0 W/m² | - |
| 1788469897 | 16.11° C | 87% | 1016.1 hPa | 0 mm | 1.79 m/s, 222° | 0 W/m² | - |
| 1788468998 | 16.11° C | 86% | 1016.2 hPa | 0.25 mm | 2.24 m/s, 222° | 0 W/m² | - |
| 1788468997 | 16.11° C | 86% | 1016.2 hPa | 0.25 mm | 2.24 m/s, 222° | 0 W/m² | - |
| 1788468997 | 16.11° C | 86% | 1016.2 hPa | 0.25 mm | 2.24 m/s, 222° | 0 W/m² | - |
| 1788468997 | 16.11° C | - | - | - | 2.24 m/s, 222° | - | - |
| 1788468098 | 16.67° C | 85% | 1016.6 hPa | 0.25 mm | 1.79 m/s, 180° | 0 W/m² | - |
| 1788468097 | 16.67° C | 85% | 1016.6 hPa | 0.25 mm | 1.79 m/s, 180° | 0 W/m² | - |
| 1788468097 | 16.67° C | 85% | 1016.6 hPa | 0.25 mm | 1.79 m/s, 180° | 0 W/m² | - |
| 1788467197 | 16.11° C | 86% | 1016.4 hPa | 0.25 mm | 1.79 m/s, 222° | 0 W/m² | - |
| 1788467197 | 16.11° C | 86% | 1016.4 hPa | 0.25 mm | 1.79 m/s, 222° | 0 W/m² | - |
| 1788466298 | 16.11° C | 87% | 1016.3 hPa | 0.25 mm | 1.34 m/s, 180° | 0 W/m² | - |
| 1788466297 | 16.11° C | - | - | - | 1.34 m/s, 180° | - | - |
* Rain latest hour (hover to see other rain measurements)
** Current wind speed in m/s (hover to see current wind gust speed)